South Hill, VA

4:14 AM EST on December 08, 2019 (GMT -0500)
Mecklenburg-Brunswick Regional

Weather History for KAVC - September, 2019

Change the Weather History Date:

Friday, September 6, 2019

  Actual Average (WUND) Record (WUND)
Temperature  
Mean Temperature 75 °F -  
Max Temperature 84 °F - - (-1)
Min Temperature 66 °F - - (-1)
Cooling Degree Days 10    
Growing Degree Days 25 (Base 50)    
Moisture  
Dew Point 67 °F    
Average Humidity 83    
Maximum Humidity 100    
Minimum Humidity 51    
Precipitation  
Precipitation 0.28 in - - ()
Sea Level Pressure  
Sea Level Pressure 29.80 in    
Wind  
Wind Speed 13 mph (North)    
Max Wind Speed 21 mph    
Max Gust Speed 33 mph    
Averages and records for this station are not official NWS values.
T = Trace of Precipitation, MM = Missing Value Source: NWS Daily Summary

Daily Weather History Graph

Daily Weather History Graph

Search for Another Location

Airport or City:

Astronomy

Sep. 06, 2019 Rise Set
Actual Time 6:47 AM EDT 7:33 PM EDT
Civil Twilight 6:20 AM EDT 7:59 PM EDT
Nautical Twilight 5:49 AM EDT 8:30 PM EDT
Astronomical Twilight 5:17 AM EDT 9:02 PM EDT
Moon 2:41 PM EDT (9/6) 12:00 AM EDT (9/6)
Length of Visible Light 13h 38m
Length of Day
12h 46m
First Quarter, 55% of the Moon is Illuminated
Sep 6
First Quarter
Sep 14
Full
Sep 21
Last Quarter
Sep 28
New
Oct 5
First Quarter

Hourly Weather History & Observations

Time (EDT) Temp. Heat Index Dew Point Humidity Pressure Visibility Wind Dir Wind Speed Gust Speed Precip Events Conditions
12:15 AM 71.6 °F - 70.7 °F 97% 29.84 in - NNE 12.7 mph 23.0 mph N/A   Overcast
12:35 AM 71.6 °F - 70.7 °F 97% 29.84 in - NNE 12.7 mph 20.7 mph N/A   Overcast
12:55 AM 71.2 °F - 70.7 °F 98% 29.83 in - North 9.2 mph 25.3 mph N/A   Overcast
1:15 AM 71.2 °F - 70.7 °F 98% 29.83 in - North 13.8 mph 19.6 mph N/A   Overcast
2:15 AM 69.8 °F - 69.4 °F 99% 29.80 in - North 16.1 mph 26.5 mph N/A   Overcast
2:35 AM 69.8 °F - 69.1 °F 98% 29.78 in - North 15.0 mph 27.6 mph N/A   Overcast
2:55 AM 69.3 °F - 69.1 °F 99% 29.78 in - North 16.1 mph 21.9 mph N/A   Overcast
3:15 AM 68.9 °F - 68.9 °F 100% 29.76 in - North 18.4 mph 26.5 mph N/A   Overcast
3:35 AM 68.9 °F - 68.9 °F 100% 29.76 in - North 17.3 mph 25.3 mph 0.02 in   Unknown
3:55 AM 69.1 °F - 69.1 °F 100% 29.75 in - North 17.3 mph 24.2 mph 0.02 in   Unknown
4:15 AM 68.9 °F - 68.9 °F 100% 29.75 in - North 17.3 mph 26.5 mph 0.01 in   Unknown
4:35 AM 68.7 °F - 68.7 °F 100% 29.75 in - North 15.0 mph 23.0 mph 0.01 in   Overcast
4:55 AM 68.4 °F - 68.4 °F 100% 29.75 in - North 17.3 mph 23.0 mph 0.06 in   Overcast
5:15 AM 68.0 °F - 68.0 °F 100% 29.74 in - North 18.4 mph 23.0 mph 0.03 in   Overcast
5:35 AM 67.3 °F - 67.3 °F 100% 29.76 in - North 15.0 mph 25.3 mph 0.18 in   Overcast
5:55 AM 67.6 °F - 67.6 °F 100% 29.74 in - North 20.7 mph 26.5 mph 0.20 in   Overcast
6:15 AM 67.8 °F - 67.8 °F 100% 29.74 in - North 18.4 mph 27.6 mph N/A   Overcast
6:35 AM 68.2 °F - 68.2 °F 100% 29.74 in - North 18.4 mph 33.4 mph N/A   Overcast
6:55 AM 68.4 °F - 68.4 °F 100% 29.74 in - North 16.1 mph 26.5 mph N/A   Overcast
7:15 AM 67.6 °F - 67.6 °F 100% 29.75 in - North 17.3 mph 25.3 mph N/A   Overcast
7:35 AM 66.9 °F - 66.9 °F 100% 29.75 in - North 19.6 mph 25.3 mph N/A   Overcast
7:55 AM 66.9 °F - 66.4 °F 98% 29.76 in - North 16.1 mph 28.8 mph N/A   Overcast
8:15 AM 67.1 °F - 66.2 °F 97% 29.76 in - North 16.1 mph 26.5 mph N/A   Overcast
8:35 AM 67.1 °F - 65.8 °F 96% 29.76 in - North 19.6 mph 28.8 mph N/A   Overcast
8:55 AM 67.8 °F - 65.8 °F 93% 29.77 in - North 18.4 mph 25.3 mph N/A   Overcast
9:15 AM 68.0 °F - 66.2 °F 94% 29.77 in - North 17.3 mph 24.2 mph N/A   Overcast
9:35 AM 68.0 °F - 66.0 °F 93% 29.78 in - North 17.3 mph 25.3 mph N/A   Overcast
9:55 AM 68.5 °F - 65.7 °F 90% 29.78 in - NNW 16.1 mph 31.1 mph N/A   Overcast
10:15 AM 69.8 °F - 66.2 °F 88% 29.77 in - NNW 15.0 mph 21.9 mph N/A   Overcast
10:35 AM 70.7 °F - 66.4 °F 86% 29.78 in - NNW 17.3 mph 26.5 mph N/A   Mostly Cloudy
10:55 AM 71.1 °F - 66.2 °F 85% 29.79 in - NNW 20.7 mph 27.6 mph N/A   Mostly Cloudy
11:15 AM 73.8 °F - 67.1 °F 80% 29.79 in - NNW 12.7 mph 24.2 mph N/A   Scattered Clouds
11:55 AM 74.8 °F - 66.6 °F 75% 29.81 in - NNW 20.7 mph 28.8 mph N/A   Mostly Cloudy
12:15 PM 76.6 °F - 66.0 °F 70% 29.81 in - NNW 16.1 mph 24.2 mph N/A   Mostly Cloudy
12:35 PM 75.9 °F - 65.1 °F 69% 29.81 in - NNW 18.4 mph 26.5 mph N/A   Overcast
12:55 PM 77.2 °F - 64.8 °F 65% 29.82 in - NNW 13.8 mph 25.3 mph N/A   Mostly Cloudy
1:15 PM 79.0 °F - 62.8 °F 57% 29.82 in - North 18.4 mph 28.8 mph N/A   Mostly Cloudy
1:35 PM 80.6 °F 81.9 °F 63.1 °F 55% 29.81 in - NNW 17.3 mph 31.1 mph N/A   Scattered Clouds
1:55 PM 81.5 °F 82.9 °F 63.7 °F 55% 29.81 in - North 15.0 mph 27.6 mph N/A   Scattered Clouds
2:15 PM 82.0 °F 83.4 °F 63.7 °F 54% 29.81 in - NNW 13.8 mph 25.3 mph N/A   Scattered Clouds
2:35 PM 82.4 °F 83.5 °F 63.3 °F 52% 29.80 in - NNW 10.4 mph 23.0 mph N/A   Clear
2:55 PM 83.1 °F 84.4 °F 63.9 °F 52% 29.79 in - North 13.8 mph 18.4 mph N/A   Clear
3:15 PM 83.7 °F 85.1 °F 64.4 °F 52% 29.80 in - NW 6.9 mph 21.9 mph N/A   Scattered Clouds
3:35 PM 83.8 °F 85.1 °F 64.2 °F 51% 29.80 in - North 12.7 mph 19.6 mph N/A   Clear
3:55 PM 83.3 °F 84.4 °F 63.7 °F 51% 29.80 in - NW 8.1 mph - N/A   Clear
4:15 PM 83.5 °F 84.9 °F 64.0 °F 52% 29.80 in - NNW 8.1 mph 19.6 mph N/A   Clear
4:35 PM 83.7 °F 85.3 °F 64.8 °F 53% 29.80 in - NNW 4.6 mph - N/A   Scattered Clouds
4:55 PM 84.6 °F 86.6 °F 65.8 °F 53% 29.81 in - NNW 5.8 mph - N/A   Scattered Clouds
5:15 PM 84.2 °F 85.8 °F 64.9 °F 52% 29.81 in - NNW 6.9 mph - N/A   Scattered Clouds
5:35 PM 84.0 °F 85.6 °F 64.8 °F 52% 29.82 in - NNW 6.9 mph - N/A   Scattered Clouds
5:55 PM 83.5 °F 85.1 °F 64.8 °F 53% 29.82 in - NNW 4.6 mph - N/A   Clear
6:15 PM 83.5 °F 85.1 °F 64.8 °F 53% 29.82 in - NNW 5.8 mph - N/A   Clear
6:35 PM 82.6 °F 84.5 °F 65.3 °F 56% 29.83 in - NNW 4.6 mph - N/A   Clear
6:55 PM 81.1 °F 83.4 °F 66.4 °F 61% 29.83 in - Calm Calm - N/A   Clear
7:15 PM 79.2 °F - 67.5 °F 67% 29.83 in - Calm Calm - N/A   Clear
7:35 PM 74.7 °F - 69.6 °F 84% 29.84 in - Calm Calm - N/A   Clear
7:55 PM 72.1 °F - 69.8 °F 92% 29.84 in - Calm Calm - N/A   Unknown
8:15 PM 71.2 °F - 69.4 °F 94% 29.84 in - Calm Calm - N/A   Unknown
8:35 PM 69.4 °F - 68.4 °F 96% 29.85 in - Calm Calm - N/A   Unknown
8:55 PM 69.3 °F - 68.5 °F 98% 29.86 in - Calm Calm - N/A   Unknown
9:15 PM 70.2 °F - 67.8 °F 92% 29.86 in - Calm Calm - N/A   Unknown
9:35 PM 68.9 °F - 67.8 °F 96% 29.87 in - Calm Calm - N/A   Unknown
9:55 PM 70.2 °F - 67.1 °F 90% 29.87 in - Calm Calm - N/A   Unknown
10:15 PM 67.3 °F - 66.7 °F 98% 29.87 in - Calm Calm - N/A   Unknown
10:35 PM 69.6 °F - 66.4 °F 89% 29.87 in - Calm Calm - N/A   Unknown
10:55 PM 68.9 °F - 66.4 °F 92% 29.88 in - Calm Calm - N/A   Unknown
11:35 PM 67.1 °F - 66.2 °F 97% 29.88 in - Calm Calm - N/A   Unknown
11:55 PM 66.4 °F - 66.0 °F 99% 29.88 in - Calm Calm - N/A   Unknown